[[{"header":{"parameterUnit":"m.s-1","parameterCategory":1,"la1":30.2992,"la2":30.254,"lo1":-89.0895,"lo2":-89.0443,"dy":0.0025,"dx":0.0025,"nx":19,"ny":19,"refTime":"2026-03-19T03:00:00:Z","depth":0,"parameterNumber":2,"parameterNumberName":"U-component_of_WINDS"},"data":[0,0,0,0.9284,0.9285,0.9341,0.9342,0.94,0.94,0,0,0,0,0,0,0,0,0,0,0,0.9261,0.9261,0.9284,0.9285,0.9341,0.9342,0.94,0.94,0,0,0,0,0,0,0,0,0,0,0,0.9261,0.9261,0.9261,0.9285,0.9341,0.9342,0.94,0.9362,0,0,0,0,0,0,0,0,0,0,0.9309,0.9282,0.9261,0.9261,0.9286,0.9341,0.9342,0.936,0.9364,0.9369,0,0.9373,0,0.9388,0.9403,0.9404,0,0,0,0.929,0.9278,0.93,0.9261,0.9286,0.9341,0.9317,0.9363,0.9367,0.9374,0.9374,0.9376,0.9389,0.9404,0.9404,0.9419,0.9418,0,0,0.9287,0.9267,0.9297,0.9302,0.9295,0.9316,0.9319,0.9366,0.9363,0.9374,0.9378,0.9389,0.9404,0.9404,0.9419,0.9419,0,0,0,0.9275,0.9265,0.9285,0.93,0.9311,0.9317,0.9321,0.9361,0.937,0.9379,0.939,0.9404,0.9405,0.9419,0.9419,0.9391,0,0,0,0.9273,0.9258,0.9284,0.9272,0.931,0.9337,0.9316,0.9366,0.9372,0.939,0.9404,0.9405,0.9419,0.9419,0.9392,0.9381,0,0,0,0.9259,0.9256,0.9262,0.9271,0.9294,0.9337,0.9348,0.9368,0.9379,0.9404,0.9406,0.9419,0.9419,0.9393,0.9383,0.9378,0,0,0,0.9239,0.9238,0.9261,0.9264,0.9294,0.932,0.9348,0.9369,0.9387,0.9405,0.9419,0.9419,0.9394,0.9384,0.9379,0.9369,0.9363,0,0,0.9226,0.9235,0.9239,0.9262,0.9279,0.9313,0.9326,0.9361,0.9381,0.9404,0.9405,0.9392,0.9383,0.9378,0.9342,0.9338,0,0,0,0.9228,0.9229,0.9238,0.9255,0.9282,0.9303,0.9339,0.9351,0.9372,0.939,0.939,0.9386,0.9383,0.9379,0.9376,0.9374,0.9417,0.9417,0.9417,0.9181,0.9207,0.9213,0.9245,0.9261,0.9296,0.9311,0.9333,0.9356,0.9355,0.9362,0.9337,0.9332,0.9329,0.9327,0.936,0.936,0.936,0.936,0.9163,0.9169,0.9198,0.9214,0.9241,0.9254,0.9288,0.9303,0.9318,0.9335,0.9334,0.9349,0.9323,0.9323,0.9358,0.9358,0.9359,0.9359,0.9359,0.9134,0.9141,0.9157,0.9182,0.9198,0.9231,0.9244,0.9268,0.9291,0.929,0.9299,0.9299,0.9301,0.9293,0.9293,0.9293,0.9293,0.9293,0.9293,0.9096,0.9115,0.9124,0.9152,0.9164,0.9184,0.9219,0.9232,0.9252,0.9268,0.9268,0.9288,0.9317,0.9322,0.9291,0.9292,0.9292,0.9292,0.9292,0.9066,0.9077,0.909,0.9103,0.9136,0.9149,0.918,0.9203,0.9217,0.9222,0.9243,0.9261,0.9272,0.9275,0.9279,0.9239,0.9239,0.9239,0.9239,0.904,0.9049,0.9066,0.9085,0.9105,0.9134,0.9145,0.9172,0.9201,0.921,0.922,0.9229,0.9231,0.924,0.9244,0.9249,0.9202,0.9202,0.9202,0.9022,0.9033,0.9039,0.9068,0.9096,0.9118,0.9129,0.9147,0.9182,0.92,0.9218,0.9219,0.9234,0.9238,0.9255,0.9261,0.927,0,0]},{"header":{"parameterUnit":"m.s-1","parameterCategory":1,"la1":30.2992,"la2":30.254,"lo1":-89.0895,"lo2":-89.0443,"dy":0.0025,"dx":0.0025,"nx":19,"ny":19,"refTime":"2026-03-19T03:00:00:Z","depth":0,"parameterNumber":3,"parameterNumberName":"V-component_of_WINDS"},"data":[0,0,0,2.3473,2.3472,2.3424,2.3424,2.3359,2.3358,0,0,0,0,0,0,0,0,0,0,0,2.3489,2.3489,2.3473,2.3472,2.3424,2.3424,2.3359,2.3358,0,0,0,0,0,0,0,0,0,0,0,2.3489,2.3489,2.3488,2.3472,2.3424,2.3424,2.3359,2.3396,0,0,0,0,0,0,0,0,0,0,2.3443,2.346,2.3489,2.3488,2.3472,2.3424,2.3423,2.3398,2.3394,2.3381,0,2.3372,0,2.3364,2.3354,2.3354,0,0,0,2.3471,2.3463,2.3449,2.3488,2.3471,2.3424,2.3445,2.3396,2.3391,2.3375,2.3371,2.3369,2.3363,2.3354,2.3354,2.3289,2.3289,0,0,2.3473,2.348,2.3452,2.3446,2.3457,2.3447,2.3444,2.3393,2.3388,2.3371,2.3367,2.3362,2.3353,2.3353,2.3289,2.3289,0,0,0,2.3482,2.3482,2.347,2.3449,2.3441,2.3445,2.3442,2.339,2.3385,2.3366,2.3362,2.3353,2.3352,2.329,2.3289,2.3285,0,0,0,2.3484,2.3487,2.3471,2.3474,2.3442,2.3415,2.344,2.3389,2.3383,2.3362,2.3353,2.3352,2.329,2.3289,2.3285,2.3281,0,0,0,2.3492,2.3488,2.3482,2.3475,2.3455,2.3416,2.3408,2.3387,2.338,2.3354,2.3351,2.329,2.3289,2.3286,2.3282,2.3265,0,0,0,2.3501,2.3478,2.3482,2.3454,2.3455,2.3415,2.3409,2.3378,2.3355,2.3353,2.329,2.3289,2.3286,2.3282,2.3266,2.3251,2.3247,0,0,2.3476,2.3475,2.3458,2.346,2.3421,2.3421,2.338,2.3352,2.3342,2.3307,2.3305,2.3285,2.3282,2.3265,2.3219,2.3216,0,0,0,2.3452,2.344,2.3428,2.3408,2.3387,2.3368,2.3346,2.3335,2.3305,2.3327,2.3275,2.3273,2.3263,2.3255,2.3252,2.3242,2.3287,2.3287,2.3287,2.3425,2.3415,2.3385,2.3369,2.335,2.3327,2.3309,2.329,2.3285,2.3273,2.3262,2.3236,2.3228,2.3225,2.3215,2.3255,2.3255,2.3255,2.3255,2.3385,2.3365,2.336,2.3329,2.3318,2.3291,2.3267,2.3265,2.3236,2.3244,2.3234,2.3242,2.3221,2.3212,2.3254,2.3254,2.3254,2.3254,2.3254,2.3365,2.3354,2.3342,2.3312,2.3288,2.3272,2.3245,2.3236,2.3226,2.3217,2.3203,2.3203,2.32,2.3212,2.3211,2.3211,2.3211,2.3211,2.3211,2.3348,2.3335,2.3315,2.3291,2.3276,2.3255,2.3232,2.3216,2.3196,2.319,2.319,2.3185,2.3222,2.3231,2.321,2.321,2.321,2.321,2.321,2.3309,2.3316,2.3285,2.327,2.324,2.3217,2.3205,2.3174,2.3159,2.3146,2.3143,2.3173,2.3171,2.3173,2.318,2.3147,2.3147,2.3147,2.3146,2.329,2.3289,2.3255,2.3232,2.3208,2.3194,2.3156,2.3137,2.3117,2.3107,2.3111,2.312,2.3123,2.3119,2.3122,2.3128,2.3083,2.3083,2.3083,2.3265,2.3261,2.3232,2.3215,2.3191,2.3169,2.3132,2.3103,2.3083,2.308,2.3098,2.3101,2.3115,2.3121,2.3117,2.3123,2.3134,0,0]}]]